Time,TemperatureF,DewpointF,PressureIn,WindDirection,WindDirectionDegrees,WindSpeedMPH,WindSpeedGustMPH,Humidity,HourlyPrecipIn,Conditions,Clouds,dailyrainin,SoftwareType,DateUTC
2013-05-30 00:02:00,68.0,67.0,29.72,NW,307,2.0,6.0,96,0.27,,,2.94,,2013-05-30 05:02:00,
2013-05-30 00:12:00,68.0,67.0,29.72,NW,307,2.0,6.0,96,0.27,,,2.94,,2013-05-30 05:12:00,
2013-05-30 00:22:00,68.0,66.0,29.72,SE,139,1.0,5.0,94,0.27,,,2.94,,2013-05-30 05:22:00,
2013-05-30 00:32:00,68.0,66.0,29.72,East,85,2.0,8.0,94,0.27,,,2.94,,2013-05-30 05:32:00,
2013-05-30 00:42:00,68.0,66.0,29.72,East,85,2.0,8.0,94,0.27,,,2.94,,2013-05-30 05:42:00,
2013-05-30 00:52:00,67.0,65.0,29.71,WSW,238,2.0,6.0,94,0.16,,,2.94,,2013-05-30 05:52:00,
2013-05-30 01:01:00,67.0,66.0,29.71,East,91,1.0,7.0,95,0.00,,,2.94,,2013-05-30 06:01:00,
2013-05-30 01:12:00,67.0,66.0,29.71,East,91,1.0,7.0,95,0.00,,,2.94,,2013-05-30 06:12:00,
2013-05-30 01:22:00,68.0,67.0,29.71,East,99,2.0,8.0,95,0.00,,,2.94,,2013-05-30 06:22:00,
2013-05-30 01:32:00,68.0,67.0,29.72,SE,124,2.0,9.0,95,0.00,,,2.94,,2013-05-30 06:32:00,
2013-05-30 01:42:00,68.0,67.0,29.72,SE,124,2.0,9.0,95,0.00,,,2.94,,2013-05-30 06:42:00,
2013-05-30 01:52:00,68.0,67.0,29.72,WSW,255,1.0,6.0,95,0.00,,,2.94,,2013-05-30 06:52:00,
2013-05-30 02:01:00,68.0,67.0,29.71,WSW,250,0.0,6.0,96,0.00,,,2.94,,2013-05-30 07:01:00,
2013-05-30 02:12:00,68.0,67.0,29.71,WSW,250,0.0,6.0,96,0.00,,,2.94,,2013-05-30 07:12:00,
2013-05-30 02:22:00,69.0,68.0,29.72,SSW,200,0.0,6.0,96,0.00,,,2.94,,2013-05-30 07:22:00,
2013-05-30 02:32:00,69.0,68.0,29.72,SSE,154,1.0,4.0,97,0.00,,,2.94,,2013-05-30 07:32:00,
2013-05-30 02:42:00,69.0,68.0,29.72,SSE,154,1.0,4.0,97,0.00,,,2.94,,2013-05-30 07:42:00,
2013-05-30 02:52:00,71.0,70.0,29.71,West,259,1.0,8.0,96,0.00,,,2.94,,2013-05-30 07:52:00,
2013-05-30 03:02:00,72.0,70.0,29.70,SSW,207,3.0,11.0,94,0.01,,,2.95,,2013-05-30 08:02:00,
2013-05-30 03:11:00,72.0,70.0,29.70,SSW,207,3.0,11.0,94,0.01,,,2.95,,2013-05-30 08:11:00,
2013-05-30 03:21:00,72.0,70.0,29.69,SW,226,3.0,11.0,92,0.01,,,2.95,,2013-05-30 08:21:00,
2013-05-30 03:32:00,73.0,70.0,29.68,SSW,195,2.0,11.0,91,0.01,,,2.95,,2013-05-30 08:32:00,
2013-05-30 03:42:00,73.0,70.0,29.68,SSW,195,2.0,11.0,91,0.01,,,2.95,,2013-05-30 08:42:00,
2013-05-30 03:52:00,73.0,70.0,29.68,NE,34,3.0,11.0,90,0.01,,,2.95,,2013-05-30 08:52:00,
2013-05-30 04:01:00,73.0,70.0,29.68,SW,219,3.0,11.0,90,0.00,,,2.95,,2013-05-30 09:01:00,
2013-05-30 04:11:00,73.0,70.0,29.68,SW,219,3.0,11.0,90,0.00,,,2.95,,2013-05-30 09:11:00,
2013-05-30 04:21:00,73.0,70.0,29.67,SSW,194,3.0,11.0,90,0.00,,,2.95,,2013-05-30 09:21:00,
2013-05-30 04:33:00,73.0,70.0,29.67,SW,217,4.0,14.0,89,0.00,,,2.95,,2013-05-30 09:33:00,
2013-05-30 04:42:00,73.0,70.0,29.67,SW,217,4.0,14.0,89,0.00,,,2.95,,2013-05-30 09:42:00,
2013-05-30 04:53:00,73.0,70.0,29.68,ESE,113,2.0,10.0,89,0.00,,,2.95,,2013-05-30 09:53:00,
2013-05-30 05:03:00,73.0,70.0,29.68,South,174,3.0,8.0,89,0.00,,,2.95,,2013-05-30 10:03:00,
2013-05-30 05:13:00,73.0,70.0,29.68,South,174,3.0,8.0,89,0.00,,,2.95,,2013-05-30 10:13:00,
2013-05-30 05:22:00,73.0,70.0,29.69,SSE,151,2.0,10.0,89,0.00,,,2.95,,2013-05-30 10:22:00,
2013-05-30 05:32:00,73.0,70.0,29.69,SE,143,2.0,8.0,89,0.00,,,2.95,,2013-05-30 10:32:00,
2013-05-30 05:42:00,73.0,70.0,29.69,SE,143,2.0,8.0,89,0.00,,,2.95,,2013-05-30 10:42:00,
2013-05-30 05:52:00,73.0,70.0,29.68,SSW,205,3.0,7.0,89,0.00,,,2.95,,2013-05-30 10:52:00,
2013-05-30 06:03:00,73.0,69.0,29.70,SW,229,2.0,7.0,88,0.00,,,2.95,,2013-05-30 11:03:00,
2013-05-30 06:12:00,73.0,69.0,29.70,SW,229,2.0,7.0,88,0.00,,,2.95,,2013-05-30 11:12:00,
2013-05-30 06:22:00,73.0,69.0,29.70,WSW,242,2.0,10.0,88,0.00,,,2.95,,2013-05-30 11:22:00,
2013-05-30 06:32:00,73.0,69.0,29.70,WSW,243,2.0,9.0,88,0.00,,,2.95,,2013-05-30 11:32:00,
2013-05-30 06:42:00,73.0,69.0,29.70,WSW,243,2.0,9.0,88,0.00,,,2.95,,2013-05-30 11:42:00,
2013-05-30 06:52:00,73.0,69.0,29.70,South,183,2.0,7.0,88,0.00,,,2.95,,2013-05-30 11:52:00,
2013-05-30 07:01:00,73.0,69.0,29.70,WSW,245,3.0,12.0,88,0.00,,,2.95,,2013-05-30 12:01:00,
2013-05-30 07:11:00,73.0,69.0,29.70,WSW,245,3.0,12.0,88,0.00,,,2.95,,2013-05-30 12:11:00,
2013-05-30 07:22:00,73.0,69.0,29.71,SW,225,3.0,9.0,88,0.00,,,2.95,,2013-05-30 12:22:00,
2013-05-30 07:32:00,73.0,69.0,29.70,SSW,203,3.0,7.0,88,0.00,,,2.95,,2013-05-30 12:32:00,
2013-05-30 07:42:00,73.0,69.0,29.70,SSW,203,3.0,7.0,88,0.00,,,2.95,,2013-05-30 12:42:00,
2013-05-30 07:52:00,73.0,69.0,29.70,SW,225,4.0,14.0,87,0.00,,,2.95,,2013-05-30 12:52:00,
2013-05-30 08:01:00,74.0,70.0,29.71,SSW,194,3.0,11.0,87,0.00,,,2.95,,2013-05-30 13:01:00,
2013-05-30 08:11:00,74.0,70.0,29.71,SSW,194,3.0,11.0,87,0.00,,,2.95,,2013-05-30 13:11:00,
2013-05-30 08:22:00,74.0,70.0,29.72,South,191,1.0,7.0,87,0.00,,,2.95,,2013-05-30 13:22:00,
2013-05-30 08:32:00,74.0,70.0,29.72,WSW,238,3.0,6.0,87,0.00,,,2.95,,2013-05-30 13:32:00,
2013-05-30 08:42:00,74.0,70.0,29.72,WSW,238,3.0,6.0,87,0.00,,,2.95,,2013-05-30 13:42:00,
2013-05-30 08:52:00,74.0,70.0,29.73,South,191,2.0,9.0,87,0.00,,,2.95,,2013-05-30 13:52:00,
2013-05-30 09:01:00,74.0,70.0,29.73,SW,221,2.0,10.0,87,0.00,,,2.95,,2013-05-30 14:01:00,
2013-05-30 09:11:00,74.0,70.0,29.73,SW,221,2.0,10.0,87,0.00,,,2.95,,2013-05-30 14:11:00,
2013-05-30 09:22:00,74.0,70.0,29.74,SSW,211,2.0,5.0,87,0.00,,,2.95,,2013-05-30 14:22:00,
2013-05-30 09:32:00,75.0,71.0,29.74,SSW,211,3.0,6.0,86,0.00,,,2.95,,2013-05-30 14:32:00,
2013-05-30 09:42:00,75.0,71.0,29.74,SSW,211,3.0,6.0,86,0.00,,,2.95,,2013-05-30 14:42:00,
2013-05-30 09:52:00,75.0,70.0,29.73,SW,224,2.0,11.0,85,0.00,,,2.95,,2013-05-30 14:52:00,
2013-05-30 10:01:00,75.0,70.0,29.74,SW,226,2.0,6.0,85,0.00,,,2.95,,2013-05-30 15:01:00,
2013-05-30 10:11:00,75.0,70.0,29.74,SW,226,2.0,6.0,85,0.00,,,2.95,,2013-05-30 15:11:00,
2013-05-30 10:22:00,75.0,70.0,29.74,SSW,208,3.0,8.0,85,0.00,,,2.95,,2013-05-30 15:22:00,
2013-05-30 10:33:00,75.0,70.0,29.74,WSW,247,2.0,11.0,85,0.00,,,2.95,,2013-05-30 15:33:00,
2013-05-30 10:42:00,75.0,70.0,29.74,WSW,247,2.0,11.0,85,0.00,,,2.95,,2013-05-30 15:42:00,
2013-05-30 10:52:00,76.0,71.0,29.74,WSW,250,2.0,4.0,85,0.00,,,2.95,,2013-05-30 15:52:00,
2013-05-30 11:03:00,76.0,71.0,29.74,WSW,251,1.0,9.0,84,0.00,,,2.95,,2013-05-30 16:03:00,
2013-05-30 11:12:00,76.0,71.0,29.74,WSW,251,1.0,9.0,84,0.00,,,2.95,,2013-05-30 16:12:00,
2013-05-30 11:22:00,76.0,71.0,29.75,SSW,208,2.0,4.0,84,0.00,,,2.95,,2013-05-30 16:22:00,
2013-05-30 11:33:00,77.0,71.0,29.75,SW,231,3.0,6.0,82,0.00,,,2.95,,2013-05-30 16:33:00,
2013-05-30 11:42:00,77.0,71.0,29.75,SW,231,3.0,6.0,82,0.00,,,2.95,,2013-05-30 16:42:00,
2013-05-30 11:52:00,77.0,71.0,29.75,WSW,249,3.0,8.0,81,0.00,,,2.95,,2013-05-30 16:52:00,
2013-05-30 12:02:00,78.0,71.0,29.75,WSW,248,3.0,6.0,80,0.00,,,2.95,,2013-05-30 17:02:00,
2013-05-30 12:11:00,78.0,71.0,29.75,WSW,248,3.0,6.0,80,0.00,,,2.95,,2013-05-30 17:11:00,
2013-05-30 12:22:00,78.0,71.0,29.75,WSW,239,2.0,10.0,80,0.00,,,2.95,,2013-05-30 17:22:00,
2013-05-30 12:32:00,79.0,72.0,29.75,SW,228,3.0,8.0,80,0.00,,,2.95,,2013-05-30 17:32:00,
2013-05-30 12:42:00,79.0,72.0,29.75,SW,228,3.0,8.0,80,0.00,,,2.95,,2013-05-30 17:42:00,
2013-05-30 12:52:00,81.0,73.0,29.74,SW,229,3.0,11.0,76,0.00,,,2.95,,2013-05-30 17:52:00,
2013-05-30 13:02:00,81.0,72.0,29.74,WSW,256,2.0,8.0,75,0.00,,,2.95,,2013-05-30 18:02:00,
2013-05-30 13:11:00,81.0,72.0,29.74,WSW,256,2.0,8.0,75,0.00,,,2.95,,2013-05-30 18:11:00,
2013-05-30 13:22:00,82.0,72.0,29.73,SW,219,4.0,10.0,73,0.00,,,2.95,,2013-05-30 18:22:00,
2013-05-30 13:32:00,82.0,72.0,29.73,SW,232,2.0,10.0,73,0.00,,,2.95,,2013-05-30 18:32:00,
2013-05-30 13:42:00,82.0,72.0,29.73,SW,232,2.0,10.0,73,0.00,,,2.95,,2013-05-30 18:42:00,
2013-05-30 13:51:00,83.0,72.0,29.72,SSW,212,5.0,14.0,70,0.00,,,2.95,,2013-05-30 18:51:00,
2013-05-30 14:01:00,84.0,73.0,29.72,SSW,203,6.0,15.0,69,0.00,,,2.95,,2013-05-30 19:01:00,
2013-05-30 14:12:00,84.0,73.0,29.72,SSW,203,6.0,15.0,69,0.00,,,2.95,,2013-05-30 19:12:00,
2013-05-30 14:23:00,84.0,72.0,29.71,WSW,239,4.0,12.0,68,0.00,,,2.95,,2013-05-30 19:23:00,
2013-05-30 14:32:00,84.0,72.0,29.70,SSW,207,6.0,13.0,68,0.00,,,2.95,,2013-05-30 19:32:00,
2013-05-30 14:42:00,84.0,72.0,29.70,SSW,207,6.0,13.0,68,0.00,,,2.95,,2013-05-30 19:42:00,
2013-05-30 14:52:00,84.0,72.0,29.70,South,174,3.0,15.0,68,0.00,,,2.95,,2013-05-30 19:52:00,
2013-05-30 15:01:00,85.0,73.0,29.69,WSW,246,3.0,10.0,68,0.00,,,2.95,,2013-05-30 20:01:00,
2013-05-30 15:11:00,85.0,73.0,29.69,WSW,246,3.0,10.0,68,0.00,,,2.95,,2013-05-30 20:11:00,
2013-05-30 15:22:00,85.0,74.0,29.68,SSE,163,3.0,19.0,69,0.00,,,2.95,,2013-05-30 20:22:00,
2013-05-30 15:33:00,86.0,73.0,29.68,SW,226,3.0,9.0,66,0.00,,,2.95,,2013-05-30 20:33:00,
2013-05-30 15:42:00,86.0,73.0,29.68,SW,226,3.0,9.0,66,0.00,,,2.95,,2013-05-30 20:42:00,
2013-05-30 15:52:00,87.0,74.0,29.67,SW,221,2.0,14.0,66,0.00,,,2.95,,2013-05-30 20:52:00,
2013-05-30 16:01:00,87.0,73.0,29.66,SW,217,3.0,7.0,64,0.00,,,2.95,,2013-05-30 21:01:00,
2013-05-30 16:11:00,87.0,73.0,29.66,SW,217,3.0,7.0,64,0.00,,,2.95,,2013-05-30 21:11:00,
2013-05-30 16:22:00,87.0,73.0,29.66,SW,229,5.0,11.0,63,0.00,,,2.95,,2013-05-30 21:22:00,
2013-05-30 16:33:00,87.0,73.0,29.66,South,183,4.0,11.0,63,0.00,,,2.95,,2013-05-30 21:33:00,
2013-05-30 16:43:00,87.0,73.0,29.66,South,183,4.0,11.0,63,0.00,,,2.95,,2013-05-30 21:43:00,
2013-05-30 16:53:00,88.0,73.0,29.66,SW,233,3.0,6.0,62,0.00,,,2.95,,2013-05-30 21:53:00,
2013-05-30 17:02:00,87.0,73.0,29.65,SSW,195,3.0,9.0,63,0.00,,,2.95,,2013-05-30 22:02:00,
2013-05-30 17:12:00,87.0,73.0,29.65,SSW,195,3.0,9.0,63,0.00,,,2.95,,2013-05-30 22:12:00,
2013-05-30 17:23:00,87.0,72.0,29.63,South,177,4.0,10.0,62,0.00,,,2.95,,2013-05-30 22:23:00,
2013-05-30 17:33:00,86.0,72.0,29.62,WSW,243,2.0,9.0,63,0.00,,,2.92,,2013-05-30 22:33:00,
2013-05-30 17:42:00,86.0,73.0,29.63,WSW,258,2.0,7.0,65,0.00,,,2.92,,2013-05-30 22:42:00,
2013-05-30 17:52:00,86.0,73.0,29.63,WSW,258,2.0,7.0,65,0.00,,,2.92,,2013-05-30 22:52:00,
2013-05-30 18:02:00,86.0,73.0,29.63,WSW,258,2.0,7.0,65,0.00,,,2.92,,2013-05-30 23:02:00,
2013-05-30 18:11:00,86.0,73.0,29.63,WSW,258,2.0,7.0,65,0.00,,,2.92,,2013-05-30 23:11:00,
2013-05-30 18:22:00,84.0,74.0,29.63,SW,236,1.0,5.0,71,0.00,,,2.92,,2013-05-30 23:22:00,
2013-05-30 18:32:00,83.0,73.0,29.64,SSE,156,1.0,7.0,71,0.00,,,2.92,,2013-05-30 23:32:00,
2013-05-30 18:41:00,83.0,73.0,29.64,SSE,156,1.0,7.0,71,0.00,,,2.92,,2013-05-30 23:41:00,
2013-05-30 18:52:00,82.0,72.0,29.65,SSE,165,1.0,5.0,72,0.00,,,2.92,,2013-05-30 23:52:00,
2013-05-30 19:01:00,82.0,73.0,29.65,WNW,287,0.0,5.0,74,0.00,,,2.92,,2013-05-31 00:01:00,
2013-05-30 19:11:00,82.0,73.0,29.65,WNW,287,0.0,5.0,74,0.00,,,2.92,,2013-05-31 00:11:00,
2013-05-30 19:22:00,81.0,73.0,29.65,SE,138,1.0,4.0,77,0.00,,,2.92,,2013-05-31 00:22:00,
2013-05-30 19:32:00,80.0,73.0,29.65,SW,224,0.0,3.0,80,0.00,,,2.92,,2013-05-31 00:32:00,
2013-05-30 19:42:00,80.0,73.0,29.65,SW,224,0.0,3.0,80,0.00,,,2.92,,2013-05-31 00:42:00,
2013-05-30 19:52:00,79.0,73.0,29.63,SW,236,0.0,3.0,82,0.00,,,2.92,,2013-05-31 00:52:00,
2013-05-30 20:01:00,80.0,74.0,29.63,SE,133,1.0,4.0,83,0.00,,,2.92,,2013-05-31 01:01:00,
2013-05-30 20:12:00,80.0,74.0,29.63,SE,133,1.0,4.0,83,0.00,,,2.92,,2013-05-31 01:12:00,
2013-05-30 20:21:00,80.0,73.0,29.62,SW,235,1.0,4.0,79,0.00,,,2.92,,2013-05-31 01:21:00,
2013-05-30 20:32:00,80.0,73.0,29.64,SSE,150,1.0,5.0,80,0.00,,,2.66,,2013-05-31 01:32:00,
2013-05-30 20:42:00,79.0,73.0,29.64,South,191,1.0,3.0,81,0.00,,,2.66,,2013-05-31 01:42:00,
2013-05-30 20:52:00,79.0,73.0,29.64,South,191,1.0,3.0,81,0.00,,,2.66,,2013-05-31 01:52:00,
2013-05-30 21:02:00,79.0,72.0,29.62,WSW,238,2.0,4.0,80,0.00,,,2.66,,2013-05-31 02:02:00,
2013-05-30 21:11:00,79.0,72.0,29.62,WSW,238,2.0,4.0,80,0.00,,,2.66,,2013-05-31 02:11:00,
2013-05-30 21:22:00,79.0,72.0,29.64,WSW,242,1.0,3.0,79,0.00,,,2.66,,2013-05-31 02:22:00,
2013-05-30 21:32:00,79.0,72.0,29.65,SW,222,2.0,5.0,79,0.00,,,2.59,,2013-05-31 02:32:00,
2013-05-30 21:42:00,79.0,72.0,29.65,SW,222,2.0,5.0,79,0.00,,,2.59,,2013-05-31 02:42:00,
2013-05-30 21:51:00,79.0,72.0,29.65,SSW,198,2.0,6.0,78,0.00,,,2.59,,2013-05-31 02:51:00,
2013-05-30 22:01:00,79.0,72.0,29.66,WSW,253,2.0,6.0,78,0.00,,,2.59,,2013-05-31 03:01:00,
2013-05-30 22:11:00,79.0,72.0,29.66,WSW,253,2.0,6.0,78,0.00,,,2.59,,2013-05-31 03:11:00,
2013-05-30 22:21:00,79.0,72.0,29.67,WSW,250,1.0,4.0,80,0.00,,,2.59,,2013-05-31 03:21:00,
2013-05-30 22:33:00,79.0,72.0,29.68,SSW,203,0.0,3.0,80,0.00,,,1.85,,2013-05-31 03:33:00,
2013-05-30 22:43:00,79.0,72.0,29.68,SSW,203,0.0,3.0,80,0.00,,,1.85,,2013-05-31 03:43:00,
2013-05-30 22:53:00,78.0,72.0,29.70,SSE,149,0.0,5.0,81,0.00,,,1.85,,2013-05-31 03:53:00,
2013-05-30 23:02:00,78.0,72.0,29.70,SSE,168,0.0,4.0,81,0.00,,,1.85,,2013-05-31 04:02:00,
2013-05-30 23:12:00,78.0,72.0,29.70,SSE,168,0.0,4.0,81,0.00,,,1.85,,2013-05-31 04:12:00,
2013-05-30 23:22:00,78.0,72.0,29.70,ESE,113,1.0,4.0,81,0.00,,,1.85,,2013-05-31 04:22:00,
2013-05-30 23:33:00,79.0,72.0,29.70,SW,231,1.0,5.0,80,0.00,,,0.28,,2013-05-31 04:33:00,
2013-05-30 23:42:00,79.0,72.0,29.70,SW,231,1.0,5.0,80,0.00,,,0.28,,2013-05-31 04:42:00,
2013-05-30 23:53:00,79.0,72.0,29.70,SW,228,0.0,5.0,80,0.00,,,0.28,,2013-05-31 04:53:00,